[[{"header":{"parameterUnit":"m.s-1","parameterCategory":1,"la1":30.2991,"la2":30.254,"lo1":-89.0895,"lo2":-89.0444,"dy":0.0017,"dx":0.0017,"nx":28,"ny":28,"refTime":"2024-10-02T09:00:00:Z","depth":0,"parameterNumber":2,"parameterNumberName":"U-component_of_WINDS"},"data":[0,0,0,0,0,0,0,0,0,0,0,0,0,0,0,0,0,0,0,0,0,0,0,0,0,0,0,0,0,0,0,0,0,0,0,0,0,0,0,0,0,0,0,0,0,0,0,0,0,0,0,0,0,0,0,0,0,0,0.3821,0.3821,0,0.3825,0.3825,0.3825,0.3858,0.3859,0.386,0.3861,0.3863,0.3863,0.3862,0,0,0,0,0,0,0,0,0,0,0,0,0,0.384,0.3839,0.3821,0.3821,0.3821,0.3825,0.3825,0.3825,0.3858,0.3859,0.386,0.3861,0.3863,0.3863,0.3862,0,0,0,0,0,0,0,0,0,0,0,0,0,0.3836,0.3839,0.3821,0.3838,0.384,0.3825,0.3825,0.3825,0.3858,0.3859,0.3861,0.3862,0.3864,0.3863,0.3862,0.383,0,0,0.3858,0.3858,0,0,0,0,0,0,0,0,0.3836,0.3836,0.3835,0.3837,0.3838,0.3842,0.3833,0.3827,0.3858,0.3851,0.3861,0.3862,0.3855,0.3855,0.3853,0.383,0.3831,0.3858,0.3858,0.3857,0.3857,0,0,0,0,0,0,0,0.3837,0.3836,0.3822,0.3835,0.3837,0.3845,0.3846,0.3832,0.3846,0.3852,0.3854,0.3854,0.3856,0.3854,0.3853,0.3831,0.3858,0.3857,0.3857,0.3856,0.3781,0.378,0,0,0,0,0,0,0.3835,0.3836,0.3822,0.3822,0.3841,0.3844,0.3845,0.384,0.3846,0.3848,0.3853,0.3856,0.3855,0.3854,0.3853,0.3816,0.3857,0.3856,0.3856,0.3783,0.3781,0.378,0,0,0,0,0,0,0.3835,0.3833,0.3822,0.383,0.3829,0.3842,0.3836,0.3839,0.3837,0.3847,0.385,0.3848,0.3856,0.3855,0.3836,0.3816,0.3856,0.3855,0.3784,0.3782,0.378,0.3741,0,0,0,0,0,0,0.3835,0.3833,0.3822,0.3829,0.3828,0.3804,0.3835,0.3839,0.3835,0.3839,0.3843,0.3845,0.3857,0.3837,0.3835,0.3816,0.3854,0.3786,0.3783,0.3781,0.3744,0.3738,0.3732,0,0,0,0,0,0.3836,0.381,0.3821,0.3819,0.3814,0.3803,0.3803,0.3817,0.3834,0.3822,0.3829,0.3845,0.382,0.3835,0.3832,0.3813,0.3787,0.3784,0.3781,0.3746,0.3739,0.3733,0,0,0,0,0,0,0.3799,0.3811,0.3823,0.3799,0.38,0.3809,0.3794,0.3809,0.3804,0.3808,0.3825,0.3826,0.3804,0.3807,0.3824,0.3782,0.3806,0.3802,0.3781,0.3774,0.3768,0.3767,0.3853,0,0,0,0,0,0.3789,0.3779,0.379,0.3768,0.3768,0.3781,0.3777,0.3788,0.3789,0.3789,0.3795,0.3795,0.3787,0.3781,0.3774,0.3745,0.3746,0.3731,0.3725,0.372,0.3716,0.37,0.3692,0.377,0.377,0.377,0,0,0.3766,0.3771,0.3764,0.3761,0.3763,0.3751,0.3781,0.3768,0.376,0.3787,0.3769,0.3773,0.3774,0.375,0.3739,0.3751,0.3695,0.3716,0.3712,0.3711,0.3696,0.3688,0.3682,0.3768,0.3768,0.3768,0,0,0.3718,0.3722,0.3704,0.3705,0.3708,0.3717,0.3712,0.3719,0.3723,0.3705,0.3725,0.3716,0.3702,0.3701,0.3699,0.3652,0.3667,0.365,0.3619,0.3603,0.3596,0.3591,0.3572,0.3566,0.3646,0.3646,0.3646,0,0.3689,0.3674,0.3692,0.3678,0.3675,0.37,0.3681,0.3681,0.3681,0.3678,0.3693,0.3675,0.3678,0.3653,0.3642,0.364,0.3634,0.3648,0.3596,0.3591,0.3586,0.3568,0.3561,0.3644,0.3644,0.3644,0.3644,0,0.3637,0.3627,0.3611,0.3611,0.3607,0.359,0.3604,0.3598,0.361,0.3618,0.3599,0.3603,0.3597,0.3593,0.3604,0.3569,0.3576,0.3593,0.3617,0.3576,0.356,0.3553,0.364,0.3641,0.3642,0.3643,0,0,0.3565,0.3575,0.3569,0.3569,0.3574,0.3566,0.355,0.3545,0.3538,0.3538,0.3524,0.3512,0.3527,0.3525,0.3537,0.3523,0.3483,0.3542,0.3542,0.3529,0.3443,0.3428,0.342,0.3494,0.3493,0.3492,0.3442,0,0.3517,0.3491,0.3507,0.3478,0.3467,0.3492,0.3478,0.3479,0.3486,0.3478,0.3485,0.3476,0.3498,0.3496,0.3484,0.3491,0.3466,0.3495,0.348,0.3479,0.3476,0.3412,0.3397,0.3349,0.3436,0.3435,0.3434,0,0.3458,0.3455,0.3425,0.3432,0.3428,0.3415,0.3411,0.3404,0.3405,0.3411,0.3409,0.3424,0.3409,0.3434,0.3412,0.3431,0.3426,0.3429,0.3427,0.3424,0.3452,0.3405,0.3334,0.3326,0.3425,0.3425,0.3426,0,0.3405,0.3394,0.3374,0.3374,0.3382,0.3372,0.3375,0.3378,0.3374,0.3371,0.3368,0.3363,0.3359,0.3355,0.3368,0.3386,0.3343,0.337,0.3346,0.3345,0.3333,0.3333,0.3258,0.3334,0.3335,0.3335,0.3335,0,0.3349,0.3329,0.3351,0.3338,0.3316,0.3335,0.3313,0.3318,0.3321,0.3309,0.3331,0.332,0.3339,0.3329,0.334,0.3319,0.3318,0.3321,0.3323,0.3317,0.3316,0.3312,0.3315,0.3333,0.3333,0.3334,0.3334,0,0.3285,0.3299,0.3279,0.3288,0.329,0.3273,0.3281,0.327,0.3279,0.3264,0.3262,0.3275,0.3265,0.3278,0.3269,0.3276,0.3247,0.3256,0.3246,0.3247,0.3221,0.3222,0.3139,0.3128,0.3213,0.3212,0.3212,0,0.3246,0.3232,0.324,0.3234,0.3236,0.3226,0.3222,0.324,0.3235,0.3236,0.3224,0.3216,0.321,0.3192,0.32,0.3193,0.3201,0.3172,0.32,0.3194,0.3197,0.3197,0.3194,0.3165,0.3164,0.3163,0.3163,0,0.3176,0.3184,0.3178,0.3173,0.3168,0.3165,0.3164,0.3158,0.3177,0.317,0.316,0.3155,0.3146,0.3137,0.3133,0.3135,0.3151,0.3155,0.3148,0.314,0.3134,0.3135,0.3227,0.3156,0.3156,0.3157,0.3157,0.3157,0.3122,0.311,0.3114,0.3105,0.3107,0.3105,0.3095,0.3103,0.3095,0.3089,0.3101,0.3087,0.309,0.3085,0.3086,0.3075,0.3087,0.3078,0.3076,0.3072,0.3067,0.3138,0.3075,0.3075,0.3075,0.3075,0.3075,0,0.3051,0.3055,0.3048,0.3046,0.3039,0.3057,0.3057,0.3049,0.3038,0.3039,0.3033,0.3021,0.3012,0.302,0.3013,0.3003,0.301,0.3,0.2999,0.2999,0.3058,0.3063,0.2994,0.2994,0.2994,0.2994,0.2994,0.2994,0.3013,0.2993,0.3001,0.2981,0.2985,0.2973,0.2971,0.2969,0.297,0.2956,0.2949,0.2955,0.2958,0.2952,0.2944,0.2947,0.2942,0.2929,0.2934,0.2988,0.2995,0.3003,0.3008,0.2928,0.2928,0.2876,0.2875,0.2875]},{"header":{"parameterUnit":"m.s-1","parameterCategory":1,"la1":30.2991,"la2":30.254,"lo1":-89.0895,"lo2":-89.0444,"dy":0.0017,"dx":0.0017,"nx":28,"ny":28,"refTime":"2024-10-02T09:00:00:Z","depth":0,"parameterNumber":3,"parameterNumberName":"V-component_of_WINDS"},"data":[0,0,0,0,0,0,0,0,0,0,0,0,0,0,0,0,0,0,0,0,0,0,0,0,0,0,0,0,0,0,0,0,0,0,0,0,0,0,0,0,0,0,0,0,0,0,0,0,0,0,0,0,0,0,0,0,0,0,-0.5123,-0.5123,0,-0.5145,-0.5145,-0.5146,-0.5156,-0.5156,-0.5156,-0.5156,-0.5179,-0.518,-0.5181,0,0,0,0,0,0,0,0,0,0,0,0,0,-0.5091,-0.5091,-0.5123,-0.5123,-0.5124,-0.5145,-0.5145,-0.5146,-0.5156,-0.5156,-0.5156,-0.5156,-0.5179,-0.518,-0.5181,0,0,0,0,0,0,0,0,0,0,0,0,0,-0.5108,-0.5091,-0.5123,-0.5131,-0.5132,-0.5145,-0.5145,-0.5146,-0.5156,-0.5156,-0.5156,-0.5156,-0.5179,-0.518,-0.5181,-0.5188,0,0,-0.5184,-0.5184,0,0,0,0,0,0,0,0,-0.5107,-0.5109,-0.513,-0.5131,-0.5132,-0.5148,-0.5143,-0.516,-0.5156,-0.5147,-0.5156,-0.5156,-0.5169,-0.5171,-0.5175,-0.5189,-0.519,-0.5184,-0.5185,-0.5185,-0.5185,0,0,0,0,0,0,0,-0.5106,-0.5108,-0.5132,-0.513,-0.5131,-0.5134,-0.5136,-0.5146,-0.5158,-0.5148,-0.5148,-0.5151,-0.517,-0.5174,-0.5176,-0.519,-0.5184,-0.5185,-0.5185,-0.5186,-0.5211,-0.5211,0,0,0,0,0,0,-0.5103,-0.5107,-0.5131,-0.5133,-0.5119,-0.5135,-0.5137,-0.5143,-0.5158,-0.516,-0.5151,-0.5151,-0.5172,-0.5174,-0.5177,-0.5186,-0.5185,-0.5186,-0.5186,-0.5211,-0.5211,-0.5211,0,0,0,0,0,0,-0.5102,-0.5105,-0.513,-0.512,-0.5123,-0.5135,-0.5141,-0.5143,-0.5148,-0.516,-0.5162,-0.5153,-0.5172,-0.5175,-0.5185,-0.5187,-0.5186,-0.5187,-0.5211,-0.5211,-0.5211,-0.5204,0,0,0,0,0,0,-0.5101,-0.5105,-0.5107,-0.512,-0.5124,-0.5138,-0.5141,-0.5143,-0.5149,-0.515,-0.5163,-0.5165,-0.5173,-0.5183,-0.5186,-0.5188,-0.5188,-0.5211,-0.5211,-0.5211,-0.5204,-0.5204,-0.5203,0,0,0,0,0,-0.51,-0.5105,-0.5107,-0.511,-0.5127,-0.5138,-0.514,-0.5148,-0.5149,-0.5152,-0.516,-0.5165,-0.5186,-0.5184,-0.5187,-0.519,-0.5211,-0.5211,-0.5211,-0.5204,-0.5204,-0.5203,0,0,0,0,0,0,-0.5092,-0.5106,-0.511,-0.5118,-0.5127,-0.514,-0.5143,-0.5148,-0.5156,-0.5157,-0.5167,-0.517,-0.5179,-0.5185,-0.5183,-0.5197,-0.5199,-0.52,-0.5193,-0.5192,-0.5192,-0.519,-0.5189,0,0,0,0,0,-0.5091,-0.5098,-0.5111,-0.5117,-0.5121,-0.5131,-0.5136,-0.5142,-0.5151,-0.5155,-0.5164,-0.5173,-0.5182,-0.5187,-0.5196,-0.5205,-0.5208,-0.5208,-0.5208,-0.5208,-0.5208,-0.5213,-0.5214,-0.5212,-0.5212,-0.5212,0,0,-0.509,-0.5098,-0.5102,-0.5116,-0.5123,-0.513,-0.5134,-0.5142,-0.5148,-0.5156,-0.5166,-0.5173,-0.5184,-0.5193,-0.5197,-0.5199,-0.5209,-0.5208,-0.5207,-0.5208,-0.5214,-0.5214,-0.5214,-0.5212,-0.5212,-0.5212,0,0,-0.5091,-0.5098,-0.5104,-0.5111,-0.5122,-0.5129,-0.513,-0.5142,-0.5147,-0.5157,-0.5163,-0.517,-0.5185,-0.5193,-0.5199,-0.5202,-0.5207,-0.5205,-0.5204,-0.5209,-0.5209,-0.5209,-0.5211,-0.5211,-0.5206,-0.5205,-0.5205,0,-0.5088,-0.5099,-0.5107,-0.5114,-0.512,-0.5128,-0.5134,-0.5141,-0.5154,-0.5158,-0.5159,-0.5177,-0.5185,-0.5197,-0.5197,-0.5202,-0.5204,-0.5204,-0.5208,-0.5208,-0.5209,-0.521,-0.5211,-0.5205,-0.5205,-0.5205,-0.5205,0,-0.5095,-0.5102,-0.5106,-0.5118,-0.5124,-0.5131,-0.5141,-0.5146,-0.5151,-0.5158,-0.5167,-0.5177,-0.5188,-0.5191,-0.5196,-0.5203,-0.5203,-0.5206,-0.5208,-0.5208,-0.521,-0.5211,-0.5205,-0.5205,-0.5205,-0.5205,0,0,-0.5092,-0.5108,-0.5109,-0.5115,-0.5127,-0.5133,-0.5141,-0.5151,-0.5155,-0.5164,-0.5171,-0.5183,-0.5185,-0.5192,-0.5198,-0.5202,-0.5205,-0.5204,-0.5205,-0.5204,-0.5213,-0.5211,-0.5211,-0.5208,-0.5208,-0.5208,-0.5212,0,-0.5094,-0.5107,-0.5115,-0.5125,-0.5132,-0.5139,-0.5146,-0.5154,-0.5161,-0.5168,-0.5175,-0.5184,-0.5187,-0.5191,-0.5195,-0.5203,-0.5207,-0.5203,-0.5214,-0.5215,-0.5211,-0.5212,-0.521,-0.5214,-0.5213,-0.5213,-0.5213,0,-0.51,-0.5108,-0.5119,-0.513,-0.5133,-0.5139,-0.5149,-0.5156,-0.5165,-0.517,-0.5177,-0.5183,-0.5191,-0.5192,-0.5204,-0.5201,-0.5206,-0.5211,-0.5212,-0.5213,-0.5214,-0.5214,-0.5215,-0.5215,-0.5214,-0.5214,-0.5214,0,-0.5096,-0.511,-0.5118,-0.5123,-0.5136,-0.514,-0.5146,-0.5156,-0.5161,-0.517,-0.5174,-0.5184,-0.5189,-0.5197,-0.5205,-0.5205,-0.5216,-0.5218,-0.522,-0.522,-0.5223,-0.5222,-0.5224,-0.5226,-0.5226,-0.5226,-0.5226,0,-0.5099,-0.5105,-0.5117,-0.5122,-0.5129,-0.5138,-0.5145,-0.5152,-0.516,-0.5167,-0.5174,-0.518,-0.5191,-0.5198,-0.5205,-0.5214,-0.5216,-0.522,-0.5222,-0.522,-0.5219,-0.5223,-0.5223,-0.5226,-0.5226,-0.5226,-0.5226,0,-0.5097,-0.5105,-0.5114,-0.5126,-0.5129,-0.5134,-0.5144,-0.515,-0.5156,-0.5165,-0.5167,-0.5178,-0.5187,-0.5197,-0.5209,-0.5214,-0.5223,-0.5225,-0.5219,-0.522,-0.5222,-0.5222,-0.5227,-0.5228,-0.5228,-0.5228,-0.5228,0,-0.5098,-0.5103,-0.5115,-0.512,-0.5125,-0.5133,-0.5139,-0.5147,-0.5153,-0.5164,-0.5168,-0.5178,-0.5186,-0.5201,-0.521,-0.522,-0.5223,-0.5224,-0.5224,-0.5222,-0.5223,-0.5223,-0.5223,-0.5224,-0.5224,-0.5224,-0.5223,0,-0.5099,-0.5103,-0.511,-0.512,-0.5126,-0.5134,-0.5142,-0.5145,-0.5156,-0.5162,-0.5171,-0.5177,-0.519,-0.52,-0.521,-0.5217,-0.5222,-0.5223,-0.5224,-0.5222,-0.5219,-0.5221,-0.5219,-0.5223,-0.5223,-0.5223,-0.5223,-0.5223,-0.5099,-0.5103,-0.5113,-0.5121,-0.5128,-0.5135,-0.5141,-0.5148,-0.5156,-0.5166,-0.5171,-0.5181,-0.519,-0.5205,-0.5212,-0.522,-0.5221,-0.5222,-0.5223,-0.5223,-0.5223,-0.5217,-0.5222,-0.5222,-0.5222,-0.5222,-0.5222,0,-0.51,-0.5106,-0.5114,-0.5125,-0.5131,-0.5135,-0.5144,-0.515,-0.5158,-0.5166,-0.5174,-0.5185,-0.5194,-0.5204,-0.5214,-0.5218,-0.5221,-0.5221,-0.5221,-0.5222,-0.5221,-0.5219,-0.5219,-0.5219,-0.5219,-0.5219,-0.5219,-0.5219,-0.5102,-0.511,-0.5115,-0.5127,-0.5133,-0.5142,-0.5147,-0.5154,-0.516,-0.5172,-0.518,-0.5186,-0.5195,-0.5206,-0.5215,-0.5217,-0.5221,-0.522,-0.5223,-0.5222,-0.5222,-0.5222,-0.5221,-0.5221,-0.5221,-0.5224,-0.5224,-0.5224]}]]